Regional Weather Roundup
Issued by NWS Sioux Falls, SD

Home | Current Version | Previous Version | Graphics & Text | Print | Product List | Glossary Off
Versions: 1 2 3 4 5 6 7 8 9 10 11 12 13 14 15 16 17 18 19 20 21 22 23 24 25 26 27 28 29 30 31 32 33 34 35 36 37 38 39 40 41 42 43 44 45 46 47 48 49 50

000
ASUS43 KFSD 192302
RWRFSD

WEATHER ROUNDUP FOR SE SOUTH DAKOTA/SW MINNESOTA/NW IOWA
NATIONAL WEATHER SERVICE SIOUX FALLS SD
600 PM CDT FRI SEP 19 2014

NOTE: "FAIR" INDICATES FEW OR NO CLOUDS BELOW 12,000 FEET WITH NO
SIGNIFICANT WEATHER AND OR OBSTRUCTIONS TO VISIBILITY.


SDZ038>040-050-052>070-200000-
SOUTHEAST SOUTH DAKOTA

CITY           SKY/WX    TMP DP  RH WIND       PRES   REMARKS
CHAMBERLAIN    MOSUNNY   82  59  44 W5        29.72R
HURON          PTSUNNY   87  57  35 W7        29.67R
MADISON        FAIR      81  66  61 W10       29.72R
MITCHELL       MOSUNNY   84  62  47 W6        29.70R
SIOUX FALLS    MOSUNNY   87  65  47 W6        29.70R
WINNER         FAIR      88  54  31 NW10      29.75R
YANKTON        SUNNY     88  64  45 W6        29.69S
$$

MNZ071-072-080-081-089-090-097-098-200000-
SOUTHWEST MINNESOTA

CITY           SKY/WX    TMP DP  RH WIND       PRES   REMARKS
FAIRMONT       MOSUNNY   82  57  42 SW16G22   29.72S
JACKSON        MOSUNNY   82  63  51 SW14G26   29.73R
LUVERNE        MOSUNNY   86  61  42 SW14      29.71R
MARSHALL       CLOUDY    81  64  57 W8        29.66R
MONTEVIDEO     PTSUNNY   79  66  65 W5        29.66R
PIPESTONE      PTSUNNY   82  64  54 W9        29.72R
REDWOOD FALLS  CLOUDY    81  67  62 SW6       29.65R
TRACY          PTSUNNY   81  67  63 SW6       29.68R
WINDOM         MOSUNNY   84  64  51 SW13G21   29.69S
WORTHINGTON    MOSUNNY   84  64  51 SW14G22   29.72R
$$

IAZ001>003-012>014-020>022-031-032-NEZ013-014-SDZ071-200000-
NORTHWEST IOWA

CITY           SKY/WX    TMP DP  RH WIND       PRES   REMARKS
CHEROKEE       SUNNY     83  70  64 S17G24    29.75R
DENISON        SUNNY     81  70  69 S17G25    29.76S
ESTHERVILLE    SUNNY     82  66  58 SW17G28   29.73R
LE MARS        SUNNY     86  68  54 S12G20    29.73S
ORANGE CITY    SUNNY     88  64  45 SW12      29.74R
SHELDON        SUNNY     84  66  54 SW17      29.72S
SIOUX CITY     SUNNY     88  66  48 S12       29.73F
SPENCER        SUNNY     84  68  58 S16G25    29.74R
STORM LAKE     SUNNY     81  72  74 SW12G23   29.78R
$$

ABBREVIATIONS USED IN REMARKS
   TC - TEMPERATURE IN CELSIUS
  WCI - WIND CHILL INDEX
   HX - HEAT INDEX
  VSB - VISIBILITY



USA.gov is the U.S. government's official web portal to all federal, state and local government web resources and services.